Regional Weather Roundup
Issued by NWS Green Bay, WI

Home | Current Version | Previous Version | Graphics & Text | Print | Product List | Glossary Off
Versions: 1 2 3 4 5 6 7 8 9 10 11 12 13 14 15 16 17 18 19 20 21 22 23 24 25 26 27 28 29 30 31 32 33 34 35 36 37 38 39 40 41 42 43 44 45 46 47 48 49 50

000
ASUS43 KGRB 281600
RWRGRB

NORTH-CENTRAL AND NORTHEAST WISCONSIN REGIONAL WEATHER ROUNDUP
NATIONAL WEATHER SERVICE GREEN BAY WI
1100 AM CDT FRI APR 28 2017

WIZ005-009-010>012-018-019-281700-
NORTH CENTRAL WISCONSIN

CITY           SKY/WX    TMP DP  RH WIND       PRES   REMARKS
IRONWOOD       CLOUDY    32  25  75 SW13      29.86R
MANITOWISH WTR NOT AVBL
ARBOR VITAE    NOT AVBL
EAGLE RIVER    NOT AVBL
LAND O LAKES   NOT AVBL
RHINELANDER    CLOUDY    33  26  75 W15       29.86R
PHILLIPS       NOT AVBL
ANTIGO         NOT AVBL
TOMAHAWK       NOT AVBL
MERRILL        NOT AVBL
$$

WIZ013-073-281700-
NORTHEAST WISCONSIN

CITY           SKY/WX    TMP DP  RH WIND       PRES   REMARKS
IRON MOUNTAIN  CLOUDY    36  24  62 W12G20    29.84R
MARINETTE      CLOUDY    39  26  59 W10G17    29.92R
$$

WIZ017-030-035>037-045-281700-
CENTRAL WISCONSIN

CITY           SKY/WX    TMP DP  RH WIND       PRES   REMARKS
MEDFORD        NOT AVBL
WAUSAU         CLOUDY    38  26  62 W8        29.89R
MOSINEE        PTSUNNY   39  27  60 W7G16     29.91R
MARSHFIELD     PTSUNNY   40  29  64 W9        29.89R
WISC RAPIDS    PTSUNNY   42  28  57 CALM      29.91S
STEVENS POINT  NOT AVBL
WAUPACA        NOT AVBL
SHAWANO        NOT AVBL
CLINTONVILLE   NOT AVBL
WAUTOMA        MOSUNNY   45  31  58 SW8       29.92F
$$

WIZ038-039-048-051-281700-
FOX VALLEY

CITY           SKY/WX    TMP DP  RH WIND       PRES   REMARKS
NWS GREEN BAY  CLOUDY    43  31  62 W10       29.91F
APPLETON       PTSUNNY   41  27  56 SW12      29.90S
OSHKOSH        PTSUNNY   42  31  64 W8        29.92F
FOND DU LAC    MOSUNNY   42  30  62 W8        29.94R
$$

WIZ022-050-052-281700-
EAST CENTRAL WISCONSIN

CITY           SKY/WX    TMP DP  RH WIND       PRES   REMARKS
EPHRAIM        NOT AVBL
WASHINGTON ISL NOT AVBL
STURGEON BAY   CLOUDY    39  27  62 W14       29.93R
MANITOWOC      NOT AVBL
SHEBOYGAN      PTSUNNY   44  39  82 S8        29.94R
$$

LMZ563-521-522-541>543-281700-
LAKESHORE

STATION/POSITION TIME  TEMP    WIND        PRES    VSBY  WAVE
                       AIR SEA DIR/SP/G                  HT/PER
                 (UTC) (F)     (DEG/KT/KT) (MB)    (MI)  (FT/S)
SHEBOYGAN LKSHOR 1500   40     190/  7/ 10 1013.8R
KEWAUNEE LKSHORE 1530   39     250/  8/ 11 1013.1R
NORTHPORT PIER   1540   37     280/  8/ 13 1012.9R
N MID LAKE BUOY  1450   35 37  250/ 14/ 17 1012.8R         3/ 4
CHAMBERS ISLAND  1540   37     210/  9/ 14 1012.5R
MENOMINEE LKSHOR 1530   38     250/ 11/ 15 1012.0R
$$



USA.gov is the U.S. government's official web portal to all federal, state and local government web resources and services.